Torna al catalogo

QIANFAN-166

AttivoComunicazioniPO
NORAD 69383·PAYLOAD·🇨🇳 China

Lanciato Jun 4, 2026 da Taiyuan Satellite Launch Center

Loading…

Prossimi Passaggi (prossime 24 ore)

TLE

AggiornatoSource: Space-Track

Epoca: Sep 14, 2026, 21:39 UTC

1 69383U 26124B   26257.90273607  .00000138  00000-0  19534-3 0  9997
2 69383  89.0091 352.5947 0001831 102.5701 257.5655 13.51021743 14155

Traccia QIANFAN-166 in tempo reale con AllMySat

Download on the App Store